Hourly Weather Rudenka

Today, 19 April, Monday

Time Temperature Precipitation Wind Pressure Humidity
00:00 +7°C° 0 mm 1 mps 741 mmHg 79%
01:00 +7°C° 0 mm 1 mps 741 mmHg 79%
02:00 +8°C° 0 mm 1 mps 741 mmHg 78%
03:00 +8°C° 0 mm 1 mps 741 mmHg 78%
04:00 +8°C° 0 mm 1 mps 740 mmHg 78%
05:00 +8°C° 0 mm 1 mps 740 mmHg 78%
06:00 +9°C° 0 mm 1 mps 740 mmHg 74%
07:00 +10°C° 0 mm 1 mps 740 mmHg 70%
08:00 +11°C° 0 mm 1 mps 740 mmHg 67%
09:00 +12°C° 0 mm 1 mps 740 mmHg 63%
10:00 +13°C° 0 mm 1 mps 740 mmHg 60%
11:00 +14°C° 0 mm 1 mps 740 mmHg 56%
12:00 +14°C° 0 mm 2 mps 740 mmHg 57%
13:00 +14°C° 0 mm 2 mps 740 mmHg 59%
14:00 +14°C° 0 mm 2 mps 740 mmHg 60%
15:00 +14°C° 0 mm 1 mps 739 mmHg 60%
16:00 +14°C° 0 mm 1 mps 739 mmHg 60%
17:00 +14°C° 0 mm 1 mps 739 mmHg 60%
18:00 +13°C° 0 mm 1 mps 739 mmHg 66%
19:00 +12°C° 0 mm 1 mps 739 mmHg 71%
20:00 +11°C° 0 mm 1 mps 739 mmHg 77%
21:00 +10°C° 0 mm 1 mps 738 mmHg 79%
22:00 +9°C° 0 mm 1 mps 738 mmHg 82%
23:00 +9°C° 0 mm 1 mps 737 mmHg 85%

Tomorrow, 20 April, Tuesday

Time Temperature Precipitation Wind Pressure Humidity
00:00 +8°C° 0 mm 2 mps 737 mmHg 85%
01:00 +8°C° 0 mm 2 mps 736 mmHg 86%
02:00 +8°C° 0 mm 2 mps 736 mmHg 86%
03:00 +8°C° 0.7 mm 2 mps 735 mmHg 89%
04:00 +8°C° 0.7 mm 3 mps 734 mmHg 92%
05:00 +8°C° 0.7 mm 3 mps 734 mmHg 95%
06:00 +7°C° 1.4 mm 4 mps 733 mmHg 95%
07:00 +8°C° 1.4 mm 5 mps 732 mmHg 96%
08:00 +8°C° 1.4 mm 5 mps 732 mmHg 96%
09:00 +8°C° 0.6 mm 6 mps 731 mmHg 96%
10:00 +9°C° 0.6 mm 6 mps 731 mmHg 96%
11:00 +9°C° 0.6 mm 6 mps 730 mmHg 96%
12:00 +10°C° 0.1 mm 7 mps 730 mmHg 88%
13:00 +11°C° 0.1 mm 8 mps 730 mmHg 81%
14:00 +12°C° 0.1 mm 9 mps 729 mmHg 73%
15:00 +11°C° 0.1 mm 9 mps 729 mmHg 78%
16:00 +10°C° 0.1 mm 9 mps 729 mmHg 83%
17:00 +8°C° 0.1 mm 9 mps 729 mmHg 88%
18:00 +7°C° 0.1 mm 9 mps 731 mmHg 88%
19:00 +7°C° 0.1 mm 9 mps 732 mmHg 89%
20:00 +6°C° 0.1 mm 9 mps 733 mmHg 89%
21:00 +6°C° 0 mm 8 mps 734 mmHg 89%
22:00 +6°C° 0 mm 7 mps 735 mmHg 88%
23:00 +7°C° 0 mm 6 mps 736 mmHg 88%

Day after tomorrow, 21 April, Wednesday

Time Temperature Precipitation Wind Pressure Humidity
00:00 +7°C° 0 mm 6 mps 736 mmHg 89%
01:00 +6°C° 0 mm 5 mps 737 mmHg 90%
02:00 +6°C° 0 mm 5 mps 737 mmHg 91%
03:00 +6°C° 0 mm 4 mps 738 mmHg 92%
04:00 +5°C° 0 mm 4 mps 738 mmHg 92%
05:00 +5°C° 0 mm 3 mps 739 mmHg 93%
06:00 +6°C° 0 mm 4 mps 739 mmHg 84%
07:00 +8°C° 0 mm 4 mps 740 mmHg 75%
08:00 +10°C° 0 mm 5 mps 740 mmHg 66%
09:00 +12°C° 0 mm 5 mps 740 mmHg 61%
10:00 +13°C° 0 mm 5 mps 740 mmHg 55%
11:00 +14°C° 0 mm 6 mps 741 mmHg 50%
12:00 +14°C° 0.1 mm 5 mps 741 mmHg 50%
13:00 +14°C° 0.1 mm 5 mps 741 mmHg 51%
14:00 +14°C° 0.1 mm 5 mps 741 mmHg 51%
15:00 +14°C° 0.2 mm 5 mps 741 mmHg 55%
16:00 +13°C° 0.2 mm 4 mps 742 mmHg 60%
17:00 +13°C° 0.2 mm 4 mps 742 mmHg 64%
18:00 +11°C° 0 mm 4 mps 742 mmHg 69%
19:00 +10°C° 0 mm 3 mps 743 mmHg 75%
20:00 +9°C° 0 mm 3 mps 743 mmHg 80%
21:00 +9°C° 0 mm 3 mps 743 mmHg 81%
22:00 +9°C° 0 mm 3 mps 743 mmHg 81%
23:00 +9°C° 0 mm 3 mps 743 mmHg 82%

22 April, Thursday

Time Temperature Precipitation Wind Pressure Humidity
00:00 +8°C° 0.1 mm 3 mps 743 mmHg 83%
01:00 +8°C° 0.1 mm 2 mps 743 mmHg 85%
02:00 +8°C° 0.1 mm 2 mps 744 mmHg 86%
03:00 +8°C° 0 mm 2 mps 744 mmHg 87%
04:00 +8°C° 0 mm 2 mps 744 mmHg 88%
05:00 +8°C° 0 mm 2 mps 744 mmHg 89%
06:00 +9°C° 0.1 mm 3 mps 744 mmHg 83%
07:00 +10°C° 0.1 mm 3 mps 745 mmHg 78%
08:00 +11°C° 0.1 mm 3 mps 745 mmHg 73%
09:00 +12°C° 0.3 mm 4 mps 745 mmHg 66%
10:00 +13°C° 0.3 mm 5 mps 745 mmHg 60%
11:00 +14°C° 0.3 mm 5 mps 745 mmHg 53%
12:00 +14°C° 0.3 mm 6 mps 745 mmHg 53%
13:00 +14°C° 0.3 mm 6 mps 745 mmHg 53%
14:00 +14°C° 0.3 mm 7 mps 745 mmHg 53%
15:00 +14°C° 0.2 mm 6 mps 745 mmHg 57%
16:00 +13°C° 0.2 mm 5 mps 745 mmHg 61%
17:00 +13°C° 0.2 mm 5 mps 745 mmHg 64%
18:00 +11°C° 0.3 mm 4 mps 745 mmHg 71%
19:00 +10°C° 0.3 mm 4 mps 745 mmHg 78%
20:00 +9°C° 0.3 mm 3 mps 746 mmHg 85%
21:00 +8°C° 0.1 mm 3 mps 746 mmHg 84%
22:00 +8°C° 0.1 mm 3 mps 746 mmHg 83%
23:00 +8°C° 0.1 mm 3 mps 745 mmHg 82%

23 April, Friday

Time Temperature Precipitation Wind Pressure Humidity
00:00 +7°C° 0 mm 2 mps 745 mmHg 83%
01:00 +7°C° 0 mm 2 mps 745 mmHg 84%
02:00 +7°C° 0 mm 2 mps 745 mmHg 85%
03:00 +7°C° 0 mm 2 mps 745 mmHg 86%
04:00 +7°C° 0 mm 2 mps 745 mmHg 86%
05:00 +8°C° 0 mm 1 mps 745 mmHg 86%
06:00 +9°C° 0 mm 2 mps 745 mmHg 80%
07:00 +12°C° 0 mm 2 mps 745 mmHg 73%
08:00 +14°C° 0 mm 2 mps 745 mmHg 66%
09:00 +14°C° 0 mm 3 mps 745 mmHg 61%
10:00 +15°C° 0 mm 4 mps 745 mmHg 55%
11:00 +17°C° 0 mm 4 mps 745 mmHg 49%
12:00 +16°C° 0 mm 5 mps 745 mmHg 48%
13:00 +16°C° 0 mm 5 mps 745 mmHg 47%
14:00 +16°C° 0 mm 5 mps 744 mmHg 47%
15:00 +15°C° 0 mm 5 mps 744 mmHg 50%
16:00 +15°C° 0 mm 5 mps 744 mmHg 52%
17:00 +14°C° 0 mm 5 mps 744 mmHg 55%
18:00 +12°C° 0 mm 4 mps 744 mmHg 64%
19:00 +10°C° 0 mm 4 mps 744 mmHg 73%
20:00 +9°C° 0 mm 3 mps 744 mmHg 82%
21:00 +8°C° 0 mm 3 mps 744 mmHg 83%
22:00 +8°C° 0 mm 3 mps 743 mmHg 84%
23:00 +8°C° 0 mm 3 mps 743 mmHg 85%

24 April, Saturday

Time Temperature Precipitation Wind Pressure Humidity
00:00 +7°C° 0 mm 3 mps 743 mmHg 86%
01:00 +7°C° 0 mm 2 mps 743 mmHg 86%
02:00 +7°C° 0 mm 2 mps 742 mmHg 86%
03:00 +7°C° 0 mm 2 mps 742 mmHg 85%
04:00 +7°C° 0 mm 2 mps 742 mmHg 85%
05:00 +7°C° 0 mm 2 mps 742 mmHg 84%
06:00 +9°C° 0 mm 2 mps 742 mmHg 76%
07:00 +11°C° 0 mm 3 mps 742 mmHg 69%
08:00 +13°C° 0 mm 3 mps 742 mmHg 61%
09:00 +14°C° 0 mm 4 mps 742 mmHg 58%
10:00 +15°C° 0 mm 4 mps 742 mmHg 54%
11:00 +17°C° 0 mm 4 mps 741 mmHg 51%
12:00 +16°C° 0 mm 5 mps 741 mmHg 50%
13:00 +16°C° 0 mm 5 mps 741 mmHg 49%
14:00 +16°C° 0 mm 5 mps 741 mmHg 48%
15:00 +15°C° 0 mm 5 mps 741 mmHg 52%
16:00 +14°C° 0 mm 4 mps 740 mmHg 56%
17:00 +13°C° 0 mm 4 mps 740 mmHg 60%
18:00 +12°C° 0 mm 4 mps 740 mmHg 64%
19:00 +11°C° 0 mm 4 mps 740 mmHg 68%
20:00 +10°C° 0 mm 4 mps 740 mmHg 72%
21:00 +10°C° 0.1 mm 4 mps 739 mmHg 77%
22:00 +10°C° 0.1 mm 3 mps 739 mmHg 82%
23:00 +9°C° 0.1 mm 3 mps 739 mmHg 87%
Show more